Total_Precipitation_Accumulation
0.12 0.07 0.08 0.06 0.08 0.11 0.11 0.12 0.14 0.14 0.12 0.12 0.14 0.17 0.16 0.11 0.09 0.09 0.09 0.10 0.13 0.18 0.20 0.21 0.24 0.27 0.26 0.23 0.18 0.14 0.12 0.12 0.12 0.15 0.22 0.30 0.38 0.39 0.42 0.42 0.56 0.61 0.35
0.11 0.06 0.07 0.05 0.06 0.09 0.10 0.11 0.12 0.12 0.10 0.11 0.12 0.14 0.13 0.12 0.11 0.10 0.10 0.11 0.13 0.17 0.18 0.18 0.19 0.22 0.20 0.14 0.11 0.09 0.08 0.11 0.19 0.30 0.39 0.40 0.48 0.47 0.48 0.44 0.66 0.88 0.42
0.11 0.06 0.06 0.07 0.06 0.07 0.08 0.10 0.11 0.11 0.11 0.11 0.11 0.12 0.12 0.12 0.12 0.12 0.12 0.15 0.20 0.24 0.22 0.21 0.21 0.22 0.19 0.14 0.11 0.09 0.10 0.18 0.33 0.56 0.89 0.87 0.75 0.60 0.54 0.42 0.43 0.44 0.37
0.11 0.06 0.04 0.06 0.06 0.07 0.07 0.10 0.13 0.13 0.11 0.11 0.12 0.12 0.13 0.12 0.12 0.12 0.13 0.17 0.23 0.28 0.28 0.26 0.26 0.22 0.18 0.14 0.13 0.13 0.16 0.27 0.48 0.81 1.38 1.26 1.06 0.89 0.70 0.48 0.41 0.37 0.40
0.12 0.07 0.05 0.06 0.06 0.07 0.07 0.09 0.13 0.14 0.12 0.12 0.13 0.12 0.13 0.13 0.12 0.14 0.17 0.18 0.20 0.25 0.24 0.19 0.17 0.16 0.17 0.14 0.14 0.17 0.25 0.42 0.71 1.10 1.62 1.71 1.60 1.20 0.78 0.55 0.50 0.49 0.51
0.15 0.08 0.05 0.07 0.08 0.09 0.11 0.12 0.14 0.13 0.14 0.15 0.15 0.17 0.17 0.16 0.16 0.18 0.23 0.24 0.23 0.23 0.21 0.17 0.16 0.15 0.17 0.14 0.15 0.23 0.36 0.60 0.81 1.21 1.71 1.91 1.54 1.25 0.92 0.74 0.64 0.60 0.56
0.21 0.13 0.09 0.09 0.11 0.14 0.17 0.19 0.21 0.21 0.20 0.21 0.22 0.23 0.22 0.21 0.22 0.23 0.24 0.26 0.24 0.24 0.22 0.20 0.21 0.18 0.17 0.15 0.17 0.25 0.39 0.62 0.88 1.65 1.81 1.78 1.62 1.32 1.10 0.90 0.73 0.64 0.58
0.26 0.17 0.14 0.12 0.17 0.22 0.25 0.28 0.30 0.27 0.25 0.25 0.26 0.28 0.25 0.22 0.22 0.22 0.22 0.23 0.25 0.28 0.27 0.21 0.15 0.13 0.11 0.13 0.14 0.22 0.37 0.49 0.73 1.30 1.62 1.57 1.31 1.16 1.16 0.93 0.80 0.68 0.59
0.43 0.26 0.22 0.19 0.20 0.28 0.35 0.32 0.30 0.28 0.27 0.29 0.34 0.36 0.32 0.27 0.23 0.22 0.25 0.25 0.27 0.27 0.23 0.17 0.12 0.10 0.10 0.11 0.13 0.18 0.33 0.49 0.73 1.11 1.27 1.37 1.12 1.09 1.22 1.10 0.89 0.73 0.66
0.65 0.47 0.40 0.38 0.36 0.36 0.36 0.37 0.34 0.32 0.33 0.34 0.36 0.36 0.34 0.27 0.25 0.25 0.24 0.25 0.24 0.25 0.24 0.20 0.17 0.16 0.15 0.14 0.16 0.20 0.30 0.40 0.60 0.92 1.52 1.51 1.11 1.27 1.35 1.16 1.00 0.89 0.73
0.74 0.72 0.70 0.59 0.55 0.53 0.46 0.38 0.40 0.35 0.36 0.36 0.35 0.34 0.33 0.36 0.43 0.41 0.34 0.35 0.37 0.37 0.34 0.31 0.28 0.27 0.22 0.20 0.23 0.27 0.28 0.33 0.66 1.18 1.76 1.59 1.30 1.46 1.45 1.25 1.11 1.04 0.93
1.00 1.04 1.04 0.94 0.83 0.77 0.71 0.71 0.69 0.59 0.53 0.48 0.56 0.52 0.50 0.74 0.83 0.73 0.76 0.68 0.64 0.58 0.48 0.46 0.43 0.38 0.34 0.31 0.38 0.37 0.33 0.46 0.93 1.58 1.64 1.22 1.40 1.67 1.68 1.49 1.32 1.26 1.21
1.40 1.15 1.04 1.12 1.13 1.20 1.28 1.12 1.11 1.08 1.02 0.90 1.02 0.95 0.96 1.13 1.04 1.05 1.12 0.97 0.83 0.74 0.69 0.74 0.61 0.50 0.47 0.52 0.60 0.55 0.55 0.66 0.96 1.48 1.58 1.41 1.60 1.89 1.99 1.81 1.58 1.50 1.48
1.71 1.50 1.26 1.19 1.18 1.33 1.50 1.44 1.40 1.34 1.28 1.21 1.25 1.11 1.27 1.42 1.50 1.53 1.64 1.45 1.33 1.24 1.25 1.17 1.07 0.84 0.74 0.73 0.75 0.79 0.86 0.84 1.04 1.35 1.47 1.28 1.43 1.82 2.17 2.13 1.88 1.76 1.72
2.07 1.88 1.67 1.44 1.38 1.48 1.64 1.67 1.63 1.64 1.58 1.66 1.78 1.58 1.57 1.57 1.66 1.94 1.92 2.04 1.73 1.71 1.74 1.63 1.44 1.34 1.19 1.05 0.99 1.00 1.06 1.04 1.14 1.32 1.33 1.33 1.41 1.68 2.06 2.22 2.18 2.18 2.11
2.57 2.23 2.00 1.88 1.68 1.60 1.64 1.76 1.78 1.74 1.87 1.96 2.10 1.97 1.94 2.00 2.13 2.45 2.49 2.42 2.17 2.18 2.37 2.39 2.17 1.93 1.73 1.62 1.42 1.37 1.38 1.42 1.55 1.60 1.55 1.52 1.41 1.46 1.84 2.17 2.39 2.55 2.49
2.72 2.63 2.44 2.31 2.20 1.94 1.83 1.99 2.10 1.97 1.97 2.00 2.19 2.32 2.32 2.37 2.62 2.66 2.88 2.83 2.66 2.60 2.57 2.55 2.73 2.69 2.29 1.99 1.83 1.80 1.84 1.79 1.84 1.89 1.95 1.96 1.74 1.60 1.69 1.93 2.14 2.29 2.37
2.87 2.66 2.63 2.37 2.24 2.33 2.26 2.40 2.46 2.52 2.57 2.44 2.47 2.73 2.82 2.85 2.90 2.92 2.91 2.93 2.89 2.85 3.07 3.13 3.06 3.01 2.83 2.54 2.33 2.12 2.03 2.08 1.93 1.90 1.92 2.02 2.09 1.80 1.61 1.59 1.70 1.82 2.06
2.40 2.47 2.55 2.49 2.36 2.36 2.54 2.81 2.96 3.11 3.30 3.45 3.41 3.56 3.52 3.34 3.29 3.37 3.41 3.49 3.35 3.39 3.35 3.19 3.42 3.33 3.19 2.91 2.47 2.23 2.04 2.06 1.95 1.71 1.73 1.87 1.96 1.86 1.77 1.59 1.61 1.72 1.98
2.28 2.43 2.58 2.73 2.85 2.81 2.84 3.01 3.35 3.52 3.68 4.04 4.12 4.12 4.14 4.14 4.07 4.06 4.00 4.00 3.88 3.78 3.66 3.57 3.55 3.33 3.16 2.90 2.41 2.17 1.98 1.77 1.70 1.69 1.53 1.55 1.64 1.56 1.64 1.64 1.69 1.59 1.74
2.54 2.70 2.65 2.77 3.03 3.25 3.62 3.59 3.74 4.11 4.47 4.62 4.81 4.85 4.71 4.57 4.53 4.38 4.28 4.30 4.13 3.99 3.79 3.65 3.53 3.41 3.09 2.85 2.75 2.40 1.93 1.66 1.53 1.43 1.41 1.39 1.35 1.40 1.59 1.59 1.56 1.52 1.50
2.56 2.77 2.88 2.95 3.31 3.79 4.35 4.85 5.22 5.53 5.53 5.69 5.69 5.59 5.29 5.07 4.90 4.69 4.65 4.51 4.26 4.08 3.86 3.65 3.52 3.43 3.15 2.96 2.94 2.86 2.27 1.82 1.43 1.13 1.15 1.18 1.20 1.28 1.36 1.34 1.32 1.34 1.39
2.53 2.76 2.95 3.27 3.85 4.67 5.16 5.60 6.14 6.45 6.20 5.95 5.69 5.62 5.53 5.43 5.29 5.08 4.96 4.64 4.38 4.10 3.79 3.51 3.33 3.26 3.17 3.06 2.89 2.97 2.59 2.08 1.64 1.29 1.09 1.01 1.08 1.21 1.25 1.26 1.23 1.18 1.25
2.66 2.78 2.99 3.54 4.23 4.87 5.39 5.98 6.54 6.81 6.87 6.70 6.18 5.70 5.28 4.97 4.70 4.53 4.46 4.25 3.98 3.69 3.48 3.21 3.01 2.91 3.01 2.89 2.78 2.59 2.41 2.12 1.88 1.57 1.25 1.09 1.07 1.12 1.18 1.20 1.21 1.22 1.22
2.34 2.79 3.14 3.70 4.34 4.97 5.65 6.36 6.80 7.06 7.06 6.68 5.90 5.15 4.64 4.32 3.99 3.70 3.58 3.46 3.28 3.07 2.88 2.79 2.74 2.64 2.60 2.51 2.39 2.31 2.24 2.12 1.86 1.63 1.40 1.19 1.14 1.14 1.16 1.19 1.31 1.32 1.30
2.23 2.60 3.08 3.40 3.99 4.66 5.23 5.77 5.95 6.12 6.08 5.69 5.25 4.77 4.36 3.82 3.32 2.91 2.70 2.59 2.48 2.35 2.31 2.31 2.32 2.29 2.26 2.24 2.20 2.11 2.04 2.02 1.88 1.76 1.53 1.34 1.32 1.23 1.18 1.16 1.17 1.22 1.27